Home > Time Zones > World Clock > Weather > U.S.A. > Knox > Past weeks

Flag for U.S.A. Weather past 2 weeks in Knox, Indiana, U.S.A.

Now
55 °F

Sunny.


Feels Like: 55 °F
Forecast: 54 / 74 °F
Wind: 3 mph from North

Location: Porter County Municipal Airport

Current Time: Jul 24, 2014 at 6:28:15 AM

Latest Report: Jul 24, 2014 at 5:53 AM


Visibility: 10 mi

Pressure: 30.13 "Hg

Humidity: 87%

Dew point: 51 °F

Location of KnoxLocation

Historic Weather in Knox — Graph

°F

Knox temperature yesterday

Maximum temperature yesterday: 75 °F (at 12:53 AM)
Minimum temperature yesterday: 57 °F (at 9:53 PM)
Average temperature yesterday: 65 °F

Past Weeks' High & Low Weather Summary

 TemperatureHumidityPressure
High83 °F (Jul 13, 2:53 PM)97% (Jul 12, 10:53 AM)30.24 "Hg (Jul 12, 10:53 AM)
Low49 °F (Jul 17, 2:53 AM)38% (Jul 10, 5:53 PM)29.79 "Hg (Jul 14, 5:53 PM)
Average68 °F74%30.04 "Hg
* Reported Jul 9 7:53 AM — Jul 24 4:53 AM, Knox, Weather by CustomWeather, © 2014

Note: Actual official high and low records may vary slightly from our data, if they occured in-between our weather recording intervals... More about our weather records

Advertising

Knox weather history for previous 24 hours

 ConditionsComfort  
Time TempWeatherWind HumidityBarometerVisibility
4:53 AM
Jul 24
56 °FClear.5 mph87%30.12 "Hg10 mi
3:53 AM57 °FClear.6 mph87%30.11 "Hg10 mi
2:53 AM57 °FClear.5 mph87%30.11 "Hg10 mi
1:53 AM58 °FClear.3 mph87%30.11 "Hg10 mi
12:53 AM59 °FClear.5 mph90%30.11 "Hg10 mi
11:53 PM
Jul 23
58 °FClear.3 mph93%30.11 "Hg10 mi
10:53 PM57 °FClear.No wind87%30.10 "Hg10 mi
9:53 PM57 °FClear.3 mph83%30.11 "Hg10 mi
8:53 PM59 °FClear.6 mph78%30.11 "Hg10 mi
7:53 PM62 °FSunny.6 mph65%30.11 "Hg10 mi
6:53 PM66 °FSunny.14 mph59%30.11 "Hg10 mi
5:53 PM67 °FSunny.12 mph53%30.10 "Hg10 mi
4:53 PM66 °FSunny.14 mph59%30.10 "Hg10 mi
3:53 PM67 °FPartly sunny.13 mph71%30.11 "Hg10 mi
2:53 PM67 °FSunny.13 mph68%30.11 "Hg10 mi
1:53 PM68 °FSunny.15 mph68%30.11 "Hg10 mi
12:53 PM69 °FScattered clouds.14 mph68%30.12 "Hg10 mi
11:53 AM69 °FPartly sunny.13 mph70%30.14 "Hg10 mi
10:53 AM68 °FMostly cloudy.9 mph76%30.11 "Hg10 mi
9:53 AM67 °FScattered clouds.12 mph76%30.08 "Hg10 mi
8:53 AM67 °FOvercast.13 mph79%30.09 "Hg10 mi
7:53 AM65 °FOvercast.9 mph85%30.09 "Hg10 mi
6:53 AM63 °FPassing clouds.10 mph90%30.04 "Hg10 mi
Weather by CustomWeather, © 2014

See weather overviewHow to use our weather pages